TimeHST,TemperatureF,Dew PointF,Humidity,Sea Level PressureIn,VisibilityMPH,Wind Direction,Wind SpeedMPH,Gust SpeedMPH,PrecipitationIn,Events,Conditions,WindDirDegrees,DateUTC
12:36 AM,50.0,44.6,82,29.99,3.0,SSW,35.7,48.3,N/A,,Overcast,200,2013-11-09 10:36:00
12:56 AM,51.8,44.6,76,29.98,5.0,SSW,48.3,56.4,0.11,,Overcast,200,2013-11-09 10:56:00
1:16 AM,51.8,44.6,76,29.98,5.0,SSW,40.3,50.6,0.02,,Overcast,210,2013-11-09 11:16:00
1:36 AM,51.8,46.4,82,29.97,5.0,SSW,38.0,50.6,0.04,,Overcast,210,2013-11-09 11:36:00
3:16 AM,50.0,44.6,82,29.98,7.0,WSW,40.3,57.5,N/A,,Mostly Cloudy,240,2013-11-09 13:16:00
3:36 AM,48.2,44.6,87,30.00,3.0,SW,33.4,46.0,N/A,,Overcast,230,2013-11-09 13:36:00
3:56 AM,48.2,42.8,82,30.00,4.0,SW,36.8,43.7,N/A,,Overcast,230,2013-11-09 13:56:00
4:16 AM,44.6,41.0,87,30.02,5.0,WSW,23.0,35.7,N/A,,Overcast,250,2013-11-09 14:16:00
4:36 AM,44.6,39.2,81,30.02,7.0,WSW,21.9,26.5,N/A,,Overcast,250,2013-11-09 14:36:00
4:56 AM,44.6,39.2,81,30.02,8.0,WSW,21.9,26.5,N/A,,Overcast,250,2013-11-09 14:56:00
5:16 AM,44.6,39.2,81,30.03,8.0,WSW,18.4,25.3,N/A,,Mostly Cloudy,250,2013-11-09 15:16:00
5:36 AM,42.8,39.2,87,30.03,7.0,WSW,17.3,21.9,N/A,,Mostly Cloudy,240,2013-11-09 15:36:00
5:56 AM,42.8,37.4,81,30.04,7.0,SW,15.0,21.9,N/A,,Overcast,230,2013-11-09 15:56:00
6:16 AM,42.8,37.4,81,30.05,7.0,WSW,10.4,-,N/A,,Overcast,240,2013-11-09 16:16:00
6:36 AM,42.8,37.4,81,30.06,6.0,WSW,10.4,-,N/A,,Overcast,250,2013-11-09 16:36:00
6:56 AM,42.8,37.4,81,30.06,6.0,SW,17.3,-,N/A,,Mostly Cloudy,230,2013-11-09 16:56:00
7:16 AM,42.8,37.4,81,30.08,8.0,WSW,12.7,-,N/A,,Partly Cloudy,240,2013-11-09 17:16:00
7:36 AM,42.8,37.4,81,30.08,8.0,WSW,11.5,-,N/A,,Mostly Cloudy,240,2013-11-09 17:36:00
7:56 AM,41.0,35.6,81,30.09,7.0,SW,12.7,-,N/A,,Overcast,230,2013-11-09 17:56:00
8:16 AM,41.0,35.6,81,30.10,7.0,SW,12.7,-,N/A,,Scattered Clouds,230,2013-11-09 18:16:00
8:36 AM,39.2,35.6,87,30.10,7.0,WSW,10.4,-,N/A,,Scattered Clouds,240,2013-11-09 18:36:00
8:56 AM,41.0,35.6,81,30.12,7.0,WSW,13.8,-,N/A,,Mostly Cloudy,240,2013-11-09 18:56:00
9:16 AM,41.0,35.6,81,30.12,7.0,WSW,13.8,-,N/A,,Mostly Cloudy,240,2013-11-09 19:16:00
9:36 AM,39.2,35.6,87,30.13,7.0,WSW,11.5,-,N/A,,Scattered Clouds,250,2013-11-09 19:36:00
9:56 AM,41.0,35.6,81,30.13,6.0,WSW,12.7,-,N/A,,Mostly Cloudy,240,2013-11-09 19:56:00
10:16 AM,41.0,35.6,81,30.13,6.0,West,12.7,-,N/A,,Overcast,260,2013-11-09 20:16:00
10:36 AM,41.0,35.6,81,30.14,7.0,WSW,15.0,-,N/A,,Partly Cloudy,240,2013-11-09 20:36:00
10:56 AM,41.0,35.6,81,30.14,8.0,WSW,13.8,-,N/A,,Clear,240,2013-11-09 20:56:00
11:16 AM,41.0,35.6,81,30.14,7.0,WSW,15.0,-,N/A,,Clear,250,2013-11-09 21:16:00
11:36 AM,42.8,35.6,76,30.14,7.0,WSW,10.4,-,N/A,,Clear,250,2013-11-09 21:36:00
11:56 AM,42.8,37.4,81,30.15,7.0,SW,15.0,-,N/A,,Partly Cloudy,230,2013-11-09 21:56:00
12:16 PM,42.8,37.4,81,30.14,8.0,WSW,16.1,-,N/A,,Mostly Cloudy,240,2013-11-09 22:16:00
12:36 PM,42.8,35.6,76,30.14,5.0,West,21.9,32.2,N/A,,Mostly Cloudy,260,2013-11-09 22:36:00
12:56 PM,42.8,35.6,76,30.16,10.0,WSW,17.3,-,N/A,,Overcast,250,2013-11-09 22:56:00
1:16 PM,42.8,35.6,76,30.16,10.0,West,18.4,21.9,N/A,,Mostly Cloudy,260,2013-11-09 23:16:00
1:36 PM,42.8,35.6,76,30.15,10.0,WSW,20.7,25.3,N/A,,Mostly Cloudy,240,2013-11-09 23:36:00
1:56 PM,42.8,33.8,70,30.15,10.0,WSW,24.2,29.9,N/A,,Clear,250,2013-11-09 23:56:00
2:16 PM,42.8,35.6,76,30.16,10.0,West,19.6,28.8,N/A,,Clear,260,2013-11-10 00:16:00
2:36 PM,41.0,33.8,76,30.17,10.0,West,17.3,27.6,N/A,,Mostly Cloudy,280,2013-11-10 00:36:00
2:56 PM,39.2,28.4,65,30.18,8.0,WNW,21.9,31.1,N/A,,Mostly Cloudy,290,2013-11-10 00:56:00
3:16 PM,41.0,30.2,65,30.18,10.0,West,20.7,26.5,N/A,,Partly Cloudy,280,2013-11-10 01:16:00
3:36 PM,41.0,30.2,65,30.19,10.0,West,18.4,-,N/A,,Clear,270,2013-11-10 01:36:00
3:56 PM,41.0,30.2,65,30.19,10.0,WNW,20.7,24.2,N/A,,Mostly Cloudy,290,2013-11-10 01:56:00
4:16 PM,41.0,28.4,61,30.21,10.0,WNW,20.7,28.8,N/A,,Overcast,290,2013-11-10 02:16:00
4:36 PM,39.2,28.4,65,30.22,10.0,WNW,23.0,32.2,N/A,,Mostly Cloudy,290,2013-11-10 02:36:00
4:56 PM,39.2,28.4,65,30.23,10.0,WNW,23.0,28.8,N/A,,Partly Cloudy,290,2013-11-10 02:56:00
5:16 PM,39.2,26.6,61,30.24,10.0,West,24.2,29.9,N/A,,Clear,280,2013-11-10 03:16:00
5:36 PM,39.2,26.6,61,30.25,10.0,West,21.9,32.2,N/A,,Clear,280,2013-11-10 03:36:00
5:56 PM,39.2,26.6,61,30.26,10.0,West,18.4,28.8,N/A,,Clear,270,2013-11-10 03:56:00
6:16 PM,39.2,26.6,61,30.27,10.0,West,23.0,26.5,N/A,,Partly Cloudy,280,2013-11-10 04:16:00
6:36 PM,37.4,26.6,65,30.28,10.0,West,19.6,25.3,N/A,,Clear,280,2013-11-10 04:36:00
6:56 PM,37.4,24.8,60,30.29,10.0,West,18.4,-,N/A,,Clear,270,2013-11-10 04:56:00
7:16 PM,37.4,24.8,60,30.29,10.0,West,15.0,-,N/A,,Clear,270,2013-11-10 05:16:00
7:36 PM,35.6,24.8,65,30.30,10.0,West,12.7,-,N/A,,Clear,260,2013-11-10 05:36:00
7:56 PM,35.6,26.6,70,30.31,10.0,WSW,9.2,-,N/A,,Clear,240,2013-11-10 05:56:00
8:16 PM,37.4,28.4,70,30.32,10.0,WSW,23.0,26.5,N/A,,Partly Cloudy,250,2013-11-10 06:16:00
8:36 PM,37.4,28.4,70,30.32,10.0,WSW,18.4,23.0,N/A,,Partly Cloudy,250,2013-11-10 06:36:00
8:56 PM,37.4,30.2,75,30.34,10.0,West,16.1,24.2,N/A,,Clear,260,2013-11-10 06:56:00
9:16 PM,37.4,30.2,75,30.34,10.0,WSW,18.4,-,N/A,,Clear,250,2013-11-10 07:16:00
9:36 PM,37.4,30.2,75,30.34,10.0,West,27.6,36.8,N/A,,Scattered Clouds,260,2013-11-10 07:36:00
9:56 PM,35.6,30.2,81,30.36,10.0,West,17.3,32.2,N/A,,Mostly Cloudy,260,2013-11-10 07:56:00
10:16 PM,35.6,30.2,81,30.36,10.0,West,12.7,-,N/A,,Scattered Clouds,260,2013-11-10 08:16:00
10:36 PM,35.6,30.2,81,30.37,10.0,West,11.5,19.6,N/A,,Clear,260,2013-11-10 08:36:00
10:56 PM,35.6,30.2,81,30.38,10.0,WSW,17.3,-,N/A,,Scattered Clouds,250,2013-11-10 08:56:00
11:16 PM,35.6,28.4,75,30.39,10.0,West,18.4,24.2,N/A,,Mostly Cloudy,280,2013-11-10 09:16:00
11:36 PM,37.4,26.6,65,30.40,10.0,West,13.8,-,N/A,,Scattered Clouds,270,2013-11-10 09:36:00
11:56 PM,37.4,26.6,65,30.42,10.0,West,17.3,24.2,N/A,,Scattered Clouds,270,2013-11-10 09:56:00